Weather History for Peru, IL

Change the Weather History Date:

Thursday, November 29, 2012

  Actual Average Record
Temperature  
Mean Temperature 40 °F -  
Max Temperature 51 °F 39 °F 60 °F (2006)
Min Temperature 28 °F 24 °F -3 °F (1976)
Degree Days  
Heating Degree Days 26    
Moisture  
Dew Point 30 °F    
Average Humidity 70    
Maximum Humidity 85    
Minimum Humidity 51    
Precipitation  
Precipitation 0.00 in - - ()
Sea Level Pressure  
Sea Level Pressure 30.15 in    
Wind  
Wind Speed 9 mph (South)    
Max Wind Speed 13 mph    
Max Gust Speed -    
Visibility 10 miles    
Events      
Averages and records for this station are not official NWS values.
T = Trace of Precipitation, MM = Missing Value Source: NWS Daily Summary

Daily Weather History Graph

Daily Weather History Graph

Search for Another Location

Airport:

Trip Planner

Search our weather history database for the weather conditions in past years. The results will help you decide how hot, cold, wet, or windy it might be!

Date:

Astronomy

Nov. 29, 2012 Rise Set
Actual Time 7:01 AM CST 4:28 PM CST
Civil Twilight 6:30 AM CST 4:59 PM CST
Nautical Twilight 5:56 AM CST 5:33 PM CST
Astronomical Twilight 5:23 AM CST 6:06 PM CST
Moon 5:31 PM CST (11/29) 7:48 AM CST (11/29)
Length of Visible Light 10h 28m
Length of Day
9h 26m
Full, 99% of the Moon is Illuminated
Nov 29
Full
Dec 6
Last Quarter
Dec 13
New
Dec 19
First Quarter
Dec 28
Full

Hourly Weather History & Observations

Time (CST) Temp. Windchill Dew Point Humidity Pressure Visibility Wind Dir Wind Speed Gust Speed Precip Events Conditions
12:15 AM 32.0 °F 24.8 °F 25.7 °F 78% 30.26 in 10.0 mi SSW 8.1 mph - N/A   Clear
12:35 AM 31.6 °F 24.4 °F 25.5 °F 78% 30.26 in 10.0 mi SSW 8.1 mph - N/A   Clear
12:55 AM 30.7 °F 24.9 °F 25.5 °F 81% 30.26 in 10.0 mi South 5.8 mph - N/A   Clear
1:15 AM 30.2 °F 21.9 °F 24.4 °F 79% 30.25 in 10.0 mi South 9.2 mph - N/A   Clear
1:35 AM 29.8 °F 23.0 °F 25.0 °F 82% 30.26 in 10.0 mi South 6.9 mph - N/A   Clear
1:55 AM 30.7 °F 24.9 °F 25.5 °F 81% 30.26 in 10.0 mi South 5.8 mph - N/A   Clear
2:15 AM 29.7 °F 22.8 °F 24.8 °F 82% 30.26 in 10.0 mi South 6.9 mph - N/A   Clear
2:35 AM 30.2 °F 22.6 °F 25.2 °F 82% 30.26 in 10.0 mi South 8.1 mph - N/A   Clear
2:55 AM 30.0 °F 24.1 °F 25.5 °F 83% 30.26 in 10.0 mi South 5.8 mph - N/A   Clear
3:15 AM 30.2 °F 23.4 °F 25.3 °F 82% 30.25 in 10.0 mi South 6.9 mph - N/A   Clear
3:35 AM 30.2 °F 21.9 °F 24.8 °F 80% 30.25 in 10.0 mi South 9.2 mph - N/A   Clear
3:55 AM 30.9 °F 22.2 °F 25.9 °F 82% 30.24 in 10.0 mi South 10.4 mph - N/A   Clear
4:15 AM 31.6 °F 23.1 °F 26.2 °F 80% 30.24 in 10.0 mi South 10.4 mph - N/A   Clear
4:35 AM 30.7 °F 23.3 °F 25.5 °F 81% 30.23 in 10.0 mi South 8.1 mph - N/A   Clear
4:55 AM 29.1 °F 21.3 °F 24.6 °F 83% 30.23 in 10.0 mi South 8.1 mph - N/A   Clear
5:15 AM 30.0 °F 21.7 °F 25.5 °F 83% 30.23 in 10.0 mi South 9.2 mph - N/A   Clear
5:35 AM 30.2 °F 21.3 °F 25.3 °F 82% 30.22 in 10.0 mi South 10.4 mph - N/A   Clear
5:55 AM 29.3 °F 20.2 °F 24.8 °F 83% 30.22 in 10.0 mi South 10.4 mph - N/A   Clear
6:15 AM 28.9 °F 20.4 °F 24.8 °F 84% 30.21 in 10.0 mi South 9.2 mph - N/A   Clear
6:35 AM 30.0 °F 21.1 °F 25.5 °F 83% 30.21 in 10.0 mi South 10.4 mph - N/A   Clear
6:55 AM 28.9 °F 19.8 °F 24.8 °F 84% 30.21 in 10.0 mi South 10.4 mph - N/A   Clear
7:15 AM 29.3 °F 19.6 °F 25.3 °F 85% 30.21 in 7.0 mi South 11.5 mph - N/A   Clear
7:35 AM 30.7 °F 21.4 °F 26.2 °F 83% 30.21 in 7.0 mi South 11.5 mph - N/A   Clear
7:55 AM 32.0 °F 23.6 °F 26.6 °F 80% 30.21 in 10.0 mi South 10.4 mph - N/A   Clear
8:15 AM 32.9 °F 24.1 °F 27.3 °F 80% 30.21 in 10.0 mi South 11.5 mph - N/A   Clear
8:35 AM 34.3 °F 25.9 °F 28.2 °F 78% 30.20 in 10.0 mi South 11.5 mph - N/A   Clear
8:55 AM 35.6 °F 27.1 °F 28.8 °F 76% 30.20 in 10.0 mi South 12.7 mph - N/A   Clear
9:15 AM 37.0 °F 29.3 °F 29.5 °F 74% 30.20 in 10.0 mi South 11.5 mph - N/A   Clear
9:35 AM 39.6 °F 32.1 °F 30.7 °F 71% 30.20 in 10.0 mi South 12.7 mph - N/A   Clear
9:55 AM 40.6 °F 33.4 °F 30.6 °F 67% 30.20 in 10.0 mi South 12.7 mph - N/A   Clear
10:15 AM 42.3 °F 35.9 °F 31.1 °F 65% 30.19 in 10.0 mi South 11.5 mph - N/A   Clear
10:35 AM 43.5 °F 37.1 °F 31.1 °F 62% 30.19 in 10.0 mi South 12.7 mph - N/A   Clear
10:55 AM 44.6 °F 38.8 °F 31.6 °F 60% 30.18 in 10.0 mi SSW 11.5 mph - N/A   Clear
11:15 AM 45.1 °F 40.3 °F 31.6 °F 59% 30.16 in 10.0 mi South 9.2 mph - N/A   Clear
11:35 AM 46.4 °F 42.4 °F 32.0 °F 57% 30.15 in 10.0 mi South 8.1 mph - N/A   Clear
11:55 AM 47.8 °F - 32.0 °F 54% 30.13 in 10.0 mi South 9.2 mph - N/A   Clear
12:15 PM 49.1 °F - 32.4 °F 53% 30.12 in 10.0 mi South 10.4 mph - N/A   Clear
12:35 PM 50.2 °F - 32.7 °F 51% 30.12 in 10.0 mi South 10.4 mph - N/A   Clear
12:55 PM 50.5 °F - 32.9 °F 51% 30.11 in 10.0 mi South 10.4 mph - N/A   Clear
1:15 PM 51.1 °F - 33.4 °F 51% 30.10 in 10.0 mi South 10.4 mph - N/A   Clear
1:35 PM 50.9 °F - 33.8 °F 52% 30.10 in 10.0 mi South 9.2 mph - N/A   Clear
1:55 PM 51.3 °F - 34.3 °F 52% 30.09 in 10.0 mi South 12.7 mph - N/A   Clear
2:15 PM 51.3 °F - 34.3 °F 52% 30.08 in 10.0 mi South 11.5 mph - N/A   Clear
2:35 PM 51.3 °F - 34.3 °F 52% 30.07 in 10.0 mi South 9.2 mph - N/A   Clear
2:55 PM 50.9 °F - 34.7 °F 54% 30.07 in 10.0 mi SSE 11.5 mph - N/A   Clear
3:15 PM 50.9 °F - 35.1 °F 55% 30.06 in 10.0 mi SSE 9.2 mph - N/A   Clear
3:35 PM 50.5 °F - 35.2 °F 56% 30.06 in 10.0 mi SSE 8.1 mph - N/A   Clear
3:55 PM 49.6 °F - 35.2 °F 58% 30.05 in 10.0 mi SE 8.1 mph - N/A   Clear
4:15 PM 49.1 °F - 35.2 °F 59% 30.05 in 10.0 mi SSE 9.2 mph - N/A   Clear
4:35 PM 48.0 °F - 34.9 °F 60% 30.05 in 10.0 mi SSE 10.4 mph - N/A   Clear
4:55 PM 47.5 °F - 34.7 °F 61% 30.06 in 10.0 mi SSE 9.2 mph - N/A   Clear
5:15 PM 46.9 °F - 34.7 °F 62% 30.07 in 10.0 mi SE 8.1 mph - N/A   Clear
5:35 PM 46.6 °F - 34.3 °F 62% 30.08 in 10.0 mi SE 8.1 mph - N/A   Clear
5:55 PM 45.5 °F 41.3 °F 34.0 °F 64% 30.09 in 10.0 mi SSE 8.1 mph - N/A   Clear
6:15 PM 45.3 °F 40.1 °F 34.0 °F 65% 30.09 in 10.0 mi South 10.4 mph - N/A   Clear
6:35 PM 44.6 °F 40.2 °F 33.8 °F 66% 30.09 in 10.0 mi SSE 8.1 mph - N/A   Clear
6:55 PM 43.3 °F 39.2 °F 33.6 °F 69% 30.08 in 10.0 mi SE 6.9 mph - N/A   Clear
7:15 PM 42.8 °F 39.3 °F 33.1 °F 69% 30.09 in 10.0 mi SE 5.8 mph - N/A   Clear
7:35 PM 42.3 °F 38.6 °F 33.1 °F 70% 30.09 in 10.0 mi SE 5.8 mph - N/A   Clear
7:55 PM 42.1 °F 37.7 °F 32.9 °F 70% 30.09 in 10.0 mi SE 6.9 mph - N/A   Clear
8:15 PM 40.8 °F 36.9 °F 32.9 °F 73% 30.08 in 10.0 mi SE 5.8 mph - N/A   Clear
8:35 PM 41.7 °F 38.0 °F 33.1 °F 71% 30.08 in 10.0 mi SE 5.8 mph - N/A   Clear
8:55 PM 41.2 °F 36.0 °F 33.3 °F 73% 30.08 in 10.0 mi SE 8.1 mph - N/A   Scattered Clouds
9:15 PM 41.2 °F 35.5 °F 33.3 °F 73% 30.08 in 10.0 mi SE 9.2 mph - N/A   Scattered Clouds
9:35 PM 41.9 °F 36.3 °F 33.8 °F 73% 30.07 in 10.0 mi SSE 9.2 mph - N/A   Clear
9:55 PM 41.4 °F 35.7 °F 33.4 °F 73% 30.07 in 10.0 mi SSE 9.2 mph - N/A   Clear
10:15 PM 41.2 °F 35.5 °F 33.3 °F 73% 30.07 in 10.0 mi SSE 9.2 mph - N/A   Mostly Cloudy
10:35 PM 41.0 °F 34.7 °F 32.9 °F 73% 30.07 in 10.0 mi SSE 10.4 mph - N/A   Mostly Cloudy
10:55 PM 40.8 °F 35.0 °F 32.9 °F 73% 30.07 in 10.0 mi SSE 9.2 mph - N/A   Clear
11:15 PM 40.1 °F 34.7 °F 32.4 °F 74% 30.06 in 10.0 mi SSE 8.1 mph - N/A   Scattered Clouds
11:35 PM 40.3 °F 34.4 °F 32.2 °F 73% 30.07 in 10.0 mi SSE 9.2 mph - N/A   Mostly Cloudy